Location: La Pr�vi�re
(47.7166°N, 1.1784°W)
Time: 22:33:36
(UTC+00:00)

Daily predictions for brighter satellites

Satellite Brightness Start Highest point End
(mag) Time Altitude Azimuth Time Altitude Azimuth Time Altitude Azimuth
Cosmos 2154 Rocket 4.3 17:13:09 10° SSE 17:19:08 48° E 17:25:05 10° NNE
Cosmos 1242 Rocket 2.6 17:16:46 10° S 17:20:11 53° E 17:23:41 10° NNE
Cosmos 1674 3.5 17:17:30 10° SSW 17:21:08 53° WNW 17:24:48 10° N
Okean 1-7 Rocket 4.2 17:16:56 10° SSW 17:21:16 60° WNW 17:25:40 10° N
Starlink K 3.1 17:18:24 10° WSW 17:21:29 63° NNW 17:24:33 10° ENE
Cosmos 2058 Rocket 3.9 17:17:38 10° NNW 17:21:54 56° W 17:26:11 10° S
ATLAS CENTAUR R/B 3.3 17:20:11 10° N 17:22:17 13° NNE 17:24:19 10° NE
Starlink M 3.1 17:20:03 10° WSW 17:23:07 62° NNW 17:26:12 10° ENE
ISS -1.4 17:24:40 10° SSE 17:25:49 11° SE 17:26:58 10° ESE
Cosmos 2150 Rocket 4.1 17:21:18 10° SSW 17:26:28 84° WNW 17:31:39 10° NNE
Cosmos 1602 Rocket 3.8 17:22:52 10° SSE 17:27:05 48° E 17:31:18 10° NNE
CZ-4 R/B 2.4 17:27:55 10° ESE 17:31:18 26° ENE 17:34:45 10° N
SMAP 3.2 17:27:01 10° SSE 17:31:40 84° WSW 17:36:22 10° NNW
Cosmos 1610 Rocket 4.5 17:26:20 10° S 17:32:23 64° E 17:38:29 10° NNE
ATLAS CENTAUR R/B 3.8 17:28:05 10° WSW 17:33:10 73° NNW 17:47:42 10° ENE
Cosmos 1300 2.6 17:30:03 10° N 17:33:53 75° E 17:37:41 10° SSE
Cosmos 2237 Rocket 2.3 17:28:28 10° NNW 17:34:01 56° ENE 17:39:32 10° SE
Cosmos 1125 Rocket 3.5 17:31:34 10° SSW 17:36:44 70° ESE 17:41:56 10° NNE
YAOGAN 6 3.0 17:33:40 10° SE 17:37:09 41° ENE 17:40:38 10° N
AQUARIUS 4.3 17:33:25 10° SSE 17:37:54 81° WSW 17:42:26 10° NNW
Cosmos 1689 Rocket 4.3 17:35:34 10° NNW 17:38:05 25° WNW 17:40:35 10° SW
Cosmos 2074 Rocket 4.2 17:31:50 10° SSW 17:38:08 79° W 17:44:28 10° N
COSMO-SKYMED 1 3.4 17:34:23 10° NNE 17:38:16 30° E 17:42:06 10° SSE
Cosmos 2333 Rocket 3.1 17:34:07 10° NW 17:39:42 54° WSW 17:45:12 10° S
Cosmos 1626 2.0 17:36:10 10° S 17:39:51 77° E 17:43:35 10° NNE
TIMED 4.5 17:37:48 10° NNW 17:42:13 82° ENE 17:46:35 10° SSE
NOAA 12 4.1 17:37:10 10° SSE 17:42:23 81° ENE 17:47:41 10° NNW
IRS-1C Rocket 4.4 17:38:08 10° S 17:43:22 72° WSW 17:48:39 10° NNW
Cosmos 1758 Rocket 4.2 17:40:31 10° SSE 17:44:22 33° E 17:48:14 10° NNE
NOSS 0 Rocket 4.0 17:39:55 10° NNW 17:46:11 86° WSW 17:52:23 10° SSE
CSL-04 Rocket 4.3 17:41:16 10° SE 17:46:13 36° ENE 17:51:15 10° N
Envisat 3.0 17:41:57 10° SSE 17:47:02 82° ENE 17:52:09 10° NNW
ATLAS 5 CENTAUR R/B 3.3 17:44:57 10° W 17:48:45 27° NNW 17:53:00 10° NNE
Cosmos 1455 3.2 17:45:38 10° NNE 17:48:47 24° ENE 17:51:55 10° SE
Cosmos 1626 Rocket 3.7 17:44:39 10° SSW 17:48:59 79° W 17:53:20 10° N
CZ-4B R/B 4.3 17:49:41 10° NW 17:50:48 12° WNW 17:51:56 10° W
ERBS 2.9 17:50:21 10° SSW 17:53:29 40° SE 17:55:37 18° ENE
Meteor 1-24 Rocket 4.2 17:49:35 10° SSW 17:54:49 59° WNW 18:00:12 10° N
Cosmos 1271 Rocket 3.8 17:51:48 10° SSW 17:55:22 44° WNW 17:59:01 10° N
Starlink AS 3.6 17:53:15 10° W 17:56:02 38° NNW 17:57:52 18° NE
SL-16 R/B 2.8 17:50:56 10° NNW 17:56:09 36° NE 18:01:21 10° ESE
Starlink BA 3.6 17:53:30 10° W 17:56:16 38° NNW 17:58:06 18° NE
Starlink AU 3.6 17:53:43 10° W 17:56:30 38° NNW 17:58:19 18° NE
Starlink AQ 3.6 17:53:55 10° W 17:56:44 39° NNW 17:58:33 18° NE
Starlink AT 3.6 17:53:58 10° W 17:56:45 38° NNW 17:58:33 18° NE
Starlink BB 3.6 17:54:10 10° W 17:56:57 38° NNW 17:58:45 18° NE
Starlink BC 3.6 17:54:24 10° W 17:57:11 38° NNW 17:58:58 18° NE
Starlink BK 3.6 17:54:38 10° W 17:57:24 38° NNW 17:59:11 18° NE
Starlink AY 3.6 17:54:52 10° W 17:57:38 38° NNW 17:59:24 18° NE
Starlink AW 3.6 17:55:05 10° W 17:57:52 38° NNW 17:59:37 18° NE
Starlink BJ 3.6 17:55:19 10° W 17:58:05 38° NNW 17:59:50 18° NE
Cosmos 1269 Rocket 4.0 17:52:57 10° NNW 17:58:16 83° ENE 18:03:34 10° SSE
Starlink AV 3.6 17:55:32 10° W 17:58:19 38° NNW 18:00:03 19° NE
Okean-O 2.6 17:53:52 10° SSE 17:58:19 89° NE 18:02:46 10° NNW
Starlink BD 3.6 17:55:47 10° W 17:58:32 38° NNW 18:00:16 19° NE
Starlink BE 3.7 17:55:59 10° W 17:58:46 38° NNW 18:00:32 19° NE
Nadezhda 3 Rocket 4.2 17:52:28 10° N 17:58:47 81° W 18:05:07 10° S
CZ-4C R/B 3.5 17:51:39 10° NW 17:58:47 65° SW 18:06:55 10° SSE
Starlink BM 3.7 17:56:14 10° W 17:58:59 37° NNW 18:00:43 19° NE
Starlink AX 3.7 17:56:27 10° W 17:59:14 37° NNW 18:00:55 19° NE
Starlink BH 3.7 17:56:41 10° W 17:59:27 37° NNW 18:01:09 19° NE
Starlink AZ 3.7 17:56:54 10° W 17:59:40 37° NNW 18:01:21 19° NE
Starlink BG 3.7 17:57:08 10° W 17:59:54 37° NNW 18:01:34 19° NE
Starlink BF 3.7 17:57:21 10° W 18:00:07 37° NNW 18:01:47 19° NE
Starlink BL 3.7 17:57:34 10° W 18:00:20 37° NNW 18:02:02 19° NE
Starlink AH 3.7 17:57:49 10° W 18:00:35 37° NNW 18:02:13 19° NE
Starlink AC 3.7 17:58:02 10° W 18:00:48 37° NNW 18:02:26 19° NE
Cosmos 724 4.4 17:55:01 10° SSW 18:00:52 60° ESE 18:06:12 12° NE
Starlink X 3.7 17:58:15 10° W 18:01:01 37° NNW 18:02:39 20° NE
Starlink AE 3.7 17:58:26 10° W 18:01:14 37° NNW 18:02:54 20° NE
Starlink Z 3.7 17:58:43 10° W 18:01:29 37° NNW 18:03:05 20° NE
Starlink AK 3.7 17:58:56 10° W 18:01:42 37° NNW 18:03:18 20° NE
Starlink AL 3.7 17:59:10 10° W 18:01:55 36° NNW 18:03:31 20° NE
Starlink AD 3.7 17:59:23 10° W 18:02:09 36° NNW 18:03:44 20° NE
Starlink Y 3.7 17:59:50 10° W 18:02:35 36° NNW 18:04:09 20° NE
Cosmos 1340 Rocket 3.2 17:58:50 10° NNW 18:02:47 67° W 18:06:44 10° S
Starlink AG 3.7 18:00:04 10° W 18:02:49 36° NNW 18:04:22 20° NE
Starlink W 3.7 18:00:15 10° W 18:03:02 36° NNW 18:04:37 20° NE
Cosmos 2219 3.2 17:57:41 10° SSW 18:03:14 65° ESE 18:08:50 10° NNE
Starlink AJ 3.7 18:00:31 10° W 18:03:16 36° NNW 18:04:48 20° NE
Meteor 1-21 Rocket 4.3 17:57:58 10° S 18:03:25 55° E 18:08:58 10° NNE
Starlink AM 3.7 18:00:59 10° W 18:03:44 36° NNW 18:05:15 21° NE
Starlink AP 3.7 18:01:12 10° W 18:03:57 36° NNW 18:05:28 21° NE
Starlink AA 3.7 18:01:25 10° W 18:04:10 36° NNW 18:05:40 21° NE
Starlink AF 3.7 18:01:39 10° W 18:04:23 36° NNW 18:05:53 21° NE
Starlink AB 3.7 18:01:52 10° W 18:04:37 36° NNW 18:06:06 21° NE
Starlink AN 3.7 18:02:06 10° W 18:04:50 36° NNW 18:06:18 21° NE
SL-14 R/B 4.3 18:01:36 10° SSW 18:05:28 49° WNW 18:09:21 10° N
SJ 16-02 4.2 18:06:02 10° WNW 18:07:10 11° NW 18:08:17 10° NNW
Cosmos 1825 Rocket 3.6 18:04:50 10° S 18:09:03 52° E 18:13:16 10° NNE
Cosmos 1727 Rocket 4.5 18:03:50 10° N 18:09:27 35° ENE 18:15:01 10° SE
Cosmos 2297 Rocket 2.3 18:09:48 10° S 18:15:18 58° ESE 18:20:19 13° NE
FengYun 1-2 T 4.4 18:10:51 10° SSE 18:16:29 84° WSW 18:22:12 10° NNW
Cosmos 1980 4.0 18:10:55 10° NNW 18:16:36 71° WSW 18:22:15 10° SSE
USA 267 3.7 18:12:10 15° NE 18:17:33 55° NNW 18:23:53 10° W
Meteor 2-17 Rocket 4.5 18:13:52 10° S 18:20:01 86° W 18:26:12 10° N
SL-8 Rocket 4.0 18:14:25 10° S 18:20:35 60° E 18:26:46 10° NNE
Starlink T 3.9 18:18:19 10° WNW 18:21:07 33° N 18:22:00 27° NNE
Starlink N 3.9 18:19:47 10° WNW 18:22:35 33° N 18:23:25 27° NNE
Iridium 96 3.2 18:22:58 52° NNE 18:23:24 74° E 18:25:50 10° S
Starlink Q 3.9 18:21:33 10° WNW 18:24:20 32° N 18:25:06 28° NNE
Cosmos 2341 Rocket 4.0 18:19:22 10° S 18:25:45 87° E 18:32:09 10° N
Starlink P 3.9 18:23:07 10° WNW 18:25:55 32° N 18:26:36 28° NNE
Shenzhou-11 Module 3.9 18:24:34 10° SSW 18:26:19 16° SSE 18:26:25 16° SSE
SKYMED 2 3.5 18:22:05 10° NNE 18:26:27 88° WNW 18:30:48 10° SSW
Starlink U 3.9 18:24:41 10° WNW 18:27:29 32° N 18:28:06 29° NNE
Cosmos 2227 Rocket 2.2 18:22:13 10° SSW 18:27:48 66° ESE 18:32:19 16° NE
USA 116 3.4 18:27:57 43° ENE 18:28:20 46° E 18:31:20 10° S
Starlink AR 3.9 18:26:11 10° WNW 18:28:25 26° N 18:28:31 26° N
Starlink B 3.9 18:26:17 10° WNW 18:29:04 32° N 18:29:38 29° NNE
NOAA 11 4.1 18:24:11 10° SSE 18:29:39 73° ENE 18:35:08 10° N
Ariane Rocket 3.5 18:25:54 10° SE 18:30:31 37° ENE 18:35:10 10° N
Cosmos 1939 Rocket 2.7 18:30:38 10° SSE 18:34:30 66° ENE 18:38:28 10° N
SL-8 R/B 4.2 18:32:23 10° SW 18:36:56 44° SSE 18:38:29 33° ESE
Starlink D 4.0 18:34:39 10° WNW 18:37:27 31° N 18:37:41 30° N
Starlink S 4.0 18:35:58 10° WNW 18:38:44 30° N 18:38:53 30° N
ARGOS 4.3 18:40:05 23° NE 18:40:05 23° NE 18:43:14 10° N
Starlink C 4.1 18:37:56 10° WNW 18:40:43 30° N 18:40:49 30° N
Starlink E 4.1 18:39:37 10° WNW 18:42:24 30° N 18:42:26 30° N
Meteor 2-10 Rocket 3.5 18:37:31 10° NNW 18:42:55 90° ENE 18:48:04 10° S
Cosmos 1943 4.4 18:38:47 10° N 18:42:48 23° NE 18:42:48 23° NE
Starlink J 4.1 18:41:18 10° WNW 18:44:02 30° N 18:44:02 30° N
Cosmos-2242 3.4 18:39:51 10° NNW 18:44:09 66° W 18:48:24 10° S
Cosmos 1703 3.2 18:40:24 10° S 18:44:18 63° E 18:45:38 38° NNE
Starlink V 4.2 18:42:57 10° WNW 18:45:37 30° N 18:45:37 30° N
YAOGAN 1 2.8 18:41:31 10° S 18:45:50 70° WSW 18:50:10 10° NNW
Starlink H 4.2 18:44:39 10° WNW 18:47:14 29° NNW 18:47:14 29° NNW
Starlink F 4.2 18:46:20 10° WNW 18:48:51 29° NNW 18:48:51 29° NNW
Starlink G 4.3 18:48:01 10° WNW 18:50:28 29° NNW 18:50:28 29° NNW
H-2A R/B 3.1 18:52:43 26° NNE 18:52:43 26° NNE 18:55:32 10° N
Cosmos 44 3.0 18:46:55 10° SSW 18:51:26 61° ESE 18:52:11 52° E
Starlink L 4.3 18:49:43 10° WNW 18:52:05 28° NNW 18:52:05 28° NNW
Starlink A 4.4 18:51:24 10° WNW 18:53:43 28° NNW 18:53:43 28° NNW
Cosmos 2218 Rocket 4.0 18:49:24 10° S 18:55:46 89° E 19:02:13 10° N
Starlink R 4.5 18:53:07 10° WNW 18:55:21 27° NNW 18:55:21 27° NNW
SL-08 R/B 4.5 18:49:52 10° S 18:56:03 62° E 19:02:22 10° NNE
Cosmos 2251 Rocket 3.4 18:51:58 10° NNW 18:57:18 79° ENE 19:02:01 13° SSE
Cosmos 864 Rocket 4.3 18:52:55 10° S 18:59:03 86° E 19:05:14 10° N
DMSP B5D1-3 4.4 18:56:48 13° NNE 19:01:22 82° ESE 19:06:28 10° SSW
ISS -2.9 18:58:41 10° SW 19:01:16 45° SSW 19:01:16 45° SSW
ATLAS CENTAUR R/B 1.9 18:58:12 10° NNW 19:01:18 41° N 19:01:18 41° N
CZ-4 R/B 3.2 19:02:34 10° SSW 19:06:13 32° W 19:09:57 10° NNW
CZ-2D R/B 4.4 19:10:11 10° S 19:13:50 43° W 19:17:31 10° NNW
Atlas Centaur 2 4.3 19:12:29 10° S 19:14:06 11° SSE 19:14:16 11° SSE
COSMO-SKYMED 1 4.4 19:10:35 10° N 19:14:23 30° WNW 19:18:11 10° SW
Cosmos 2237 Rocket 4.3 19:13:09 10° NW 19:17:42 26° WSW 19:22:15 10° SSW
Cosmos 1842 Rocket 4.3 19:15:58 10° N 19:18:59 42° N 19:18:59 42° N
CZ-2C R/B 4.3 19:23:28 30° NNE 19:23:28 30° NNE 19:26:31 10° N
Cosmos 1455 4.3 19:21:08 10° NNW 19:24:24 27° W 19:27:37 10° SSW
Cosmos 1356 Rocket 4.2 19:22:53 10° NNW 19:25:52 44° NW 19:25:52 44° NW
Cosmos 1000 Rocket 4.3 19:21:36 10° N 19:27:47 70° E 19:28:48 60° SE
ADEOS Rocket 3.2 19:24:04 10° NNE 19:30:38 90° NW 19:37:55 10° SSW
Meteor 1-27 4.2 19:26:33 10° NNW 19:32:08 80° W 19:35:58 21° S
Meteor 2-2 Rocket 4.2 19:27:50 10° N 19:33:55 76° ENE 19:33:55 76° ENE
ATLAS 5 CENTAUR R/B 4.1 19:32:28 10° NW 19:35:10 14° N 19:35:26 14° N
Meteor 1-11 4.3 19:29:57 10° SSW 19:35:32 72° WNW 19:38:45 26° N
SL-16 R/B 3.2 19:35:01 10° NW 19:40:23 44° WSW 19:45:42 10° S
Cosmos 2082 4.3 19:44:10 10° SW 19:49:38 52° WNW 19:50:54 43° NNW
Cosmos 1603 4.5 19:47:16 10° NNW 19:51:03 43° NNW 19:51:03 43° NNW
Cosmos 2297 Rocket 3.9 19:54:52 10° WSW 19:59:44 29° NW 20:02:09 21° N
USA 267 4.0 19:59:31 39° N 19:59:53 40° N 20:05:52 10° WNW
FALCON 9 R/B 4.5 19:58:25 10° SW 20:05:51 20° S 20:05:56 20° S
Cosmos 2227 Rocket 4.0 20:07:39 10° WSW 20:12:20 26° NW 20:14:11 22° NNW
H-2A R/B 4.2 20:33:20 20° NW 20:33:20 20° NW 20:35:07 10° NNW
ATLAS 5 CENTAUR R/B 4.5 21:03:13 10° NW 21:35:51 11° SSE 21:36:45 10° SSE
